Retour au catalogue

STARLINK-6128

ActifCommunicationsVLEO
NORAD 57132·PAYLOAD·🇺🇸 United States

Lancé Jun 23, 2023 depuis Cape Canaveral Space Force Station

Loading…

Prochains Passages (prochaines 24 heures)

TLE

FraisSource: CelesTrak SupGP

Époque: Sep 15, 2026, 03:19 UTC

1 57132C 23090AH  26258.13868056 -.00001428  00000+0 -51726-4 0  2581
2 57132  42.9995 291.5056 0001470 262.4035 245.6908 15.27582523    15

Suivez STARLINK-6128 en temps réel avec AllMySat

Download on the App Store